Location: D�derode
(51.8092°N, 10.1065°E)
Time: 20:43:10
(UTC+00:00)

Cosmos 1666 Rocket - Pass Details

Date: 01 December 2020
Orbit: 604 x 633 km, 82.5° (Epoch: 25 January)

Event Time Altitude Azimuth Distance (km) Brightness Sun altitude
Rises 15:58:22 0° 352° (N) 2,909 6.8 -6.9°
Reaches altitude 10° 16:00:39 10° 357° (N) 2,003 5.9 -7.2°
Maximum altitude 16:05:01 53° 75° (ENE) 772 3.7 -7.8°
Drops below altitude 10° 16:09:22 10° 153° (SSE) 2,004 6.2 -8.4°
Sets 16:11:38 0° 158° (SSE) 2,910 7.1 -8.7°
